Hourly Data Report for October 23, 2013

All times are specified in Local Standard Time (LST). Add 1 hour to adjust for Daylight Saving Time where and when it is observed.

TORONTO INTL A
ONTARIO

43°40'36.000" N
79°37'50.000" W
173.40 m
6158731
71624
YYZ

Download Data

Hourly Data (October 2013)
Hourly Data Report for October 23, 2013
Temp Definition
°C
Dew Point Temp Definition
°C
Rel Hum Definition
%
Wind Dir Definition
10's deg

Wind Spd Definition
km/h
Visibility Definition
km
Stn Press Definition
kPa
Hmdx Definition


Wind Chill Definition


Weather Definition


TIME
00:00 Legend Double Dagger 3.9 1.3 83 27 15 24.1 98.86     LegendNANA
01:00 Legend Double Dagger 3.8 1.4 84 27 17 24.1 98.81     Mostly Cloudy
02:00 Legend Double Dagger 3.3 1.2 86 29 8 24.1 98.77     LegendNANA
03:00 Legend Double Dagger 3.8 1.4 84 28 13 24.1 98.71     LegendNANA
04:00 Legend Double Dagger 4.2 1.6 83 30 12 19.3 98.68     Rain Showers
05:00 Legend Double Dagger 4.0 1.7 85 28 13 24.1 98.66     LegendNANA
06:00 Legend Double Dagger 4.1 1.7 84 27 17 24.1 98.66     LegendNANA
07:00 Legend Double Dagger 3.8 1.7 86 26 14 24.1 98.68     Mostly Cloudy
08:00 Legend Double Dagger 4.7 2.1 83 29 12 24.1 98.72     LegendNANA
09:00 Legend Double Dagger 4.9 1.6 79 30 12 24.1 98.71     LegendNANA
10:00 Legend Double Dagger 6.3 1.4 71 30 7 24.1 98.68     Mainly Clear
11:00 Legend Double Dagger 7.7 0.2 59 32 14 24.1 98.66     LegendNANA
12:00 Legend Double Dagger 8.3 0.6 58 36 13 24.1 98.63     LegendNANA
13:00 Legend Double Dagger 7.7 -1.3 53 33 24 24.1 98.58     Mostly Cloudy
14:00 Legend Double Dagger 7.5 -2.2 50 31 25 24.1 98.59     LegendNANA
15:00 Legend Double Dagger 9.2 -3.7 40 33 34 24.1 98.60     LegendNANA
16:00 Legend Double Dagger 7.7 -3.5 45 31 24 24.1 98.67     Clear
17:00 Legend Double Dagger 6.4 -4.7 45 31 24 24.1 98.73     LegendNANA
18:00 Legend Double Dagger 5.2 -3.9 52 31 17 24.1 98.79     LegendNANA
19:00 Legend Double Dagger 4.2 -2.4 62 29 22 24.1 98.84     Mainly Clear
20:00 Legend Double Dagger 2.5 -1.7 74 28 15 24.1 98.84     LegendNANA
21:00 Legend Double Dagger 2.1 -1.5 77 28 14 24.1 98.87     LegendNANA
22:00 Legend Double Dagger 0.9 -1.7 83 25 11 24.1 98.89     Mainly Clear
23:00 Legend Double Dagger 1.5 -0.9 84 26 19 24.1 98.87     LegendNANA

Notes on Data Quality.

Legend

  • E = Estimated
  • M = Missing
  • NA = Not Available
  • ‡ = Partner data that is not subject to review by the National Climate Archives
Date modified: